STARLINK-32674

Last updated on Wed Jan 29 2025 00:02:04 GMT+0000 (Coordinated Universal Time)

1 62434U 24251C 25028.50002315 .00031158 00000+0 78645-3 0 9996 2 62434 53.1596 66.6621 0001235 83.4435 193.6950 15.39592651 5852
UTC large
Height (km)
Speed (km/s)
/
Latitude / Longitude
Inclination (degrees)
Orbital Period (minutes)
Azimuth
Elevation
Range (km)
Doppler Factor

Next 0 passes for location: London (51.5072 / 0.1276)

Sorry there are no passes over London.